Home > Weather > Majuro > Past weeks

Flag for Marshall Islands Past Weather in Majuro, Marshall Islands — Yesterday and Last 2 Weeks

Now
83 °F

Cloudy.


Feels Like: 91 °F
Forecast: 80 / 87 °F
Wind: 3 mph from North

Location: Majuro Atoll

Current Time: Jun 26, 2016 at 8:14:42 PM

Latest Report: Jun 26, 2016 at 6:54 PM


Visibility: 15 mi

Pressure: 29.81 "Hg

Humidity: 81%

Dew Point: 76 °F

Location of MajuroLocation

Past Weather in Majuro — Graph

°F

Majuro Temperature Yesterday

Maximum temperature yesterday: 88 °F (at 10:52 AM)
Minimum temperature yesterday: 82 °F (at 11:52 PM)
Average temperature yesterday: 84 °F

High & Low Weather Summary for the Past Weeks

 TemperatureHumidityPressure
High89 °F (Jun 12, 12:55 PM)93% (Jun 18, 5:54 PM)29.92 "Hg (Jun 18, 5:54 PM)
Low79 °F (Jun 16, 2:55 AM)73% (Jun 12, 1:54 PM)29.72 "Hg (Jun 23, 3:57 PM)
Average84 °F81%29.81 "Hg
* Reported Jun 11 6:54 PM — Jun 26 6:54 PM, Majuro, Weather by CustomWeather, © 2016

Note: Actual official high and low records may vary slightly from our data, if they occured in-between our weather recording intervals... More about our weather records

Advertising

Majuro Weather History for the Previous 24 Hours

Scroll right to see more
 ConditionsComfort  
Time TempWeatherWind HumidityBarometerVisibility
6:54 PM
Sun, Jun 26
83 °FCloudy.3 mph81%29.81 "Hg15 mi
5:50 PM83 °FCloudy.6 mph79%29.80 "Hg15 mi
4:50 PM84 °FCloudy.7 mph78%29.79 "Hg15 mi
3:52 PM85 °FMostly cloudy.8 mph75%29.78 "Hg15 mi
2:52 PM85 °FCloudy.6 mph76%29.77 "Hg15 mi
1:50 PM84 °FCloudy.7 mph78%29.77 "Hg15 mi
12:50 PM84 °FCloudy.8 mph82%29.78 "Hg15 mi
11:57 AM83 °FCloudy.15 mph82%29.83 "Hg15 mi
10:55 AM85 °FCloudy.10 mph77%29.86 "Hg15 mi
9:57 AM84 °FCloudy.14 mph82%29.85 "Hg15 mi
8:57 AM83 °FCloudy.12 mph81%29.85 "Hg15 mi
7:51 AM84 °FCloudy.13 mph81%29.83 "Hg15 mi
6:52 AM83 °FOvercast.13 mph81%29.83 "Hg15 mi
5:51 AM82 °FMostly cloudy.12 mph85%29.80 "Hg15 mi
4:54 AM82 °FOvercast.10 mph86%29.78 "Hg15 mi
3:51 AM81 °FOvercast.9 mph88%29.77 "Hg15 mi
2:51 AM81 °FOvercast.12 mph88%29.78 "Hg15 mi
1:52 AM82 °FOvercast.7 mph85%29.78 "Hg15 mi
12:50 AM82 °FOvercast.12 mph85%29.81 "Hg15 mi
11:52 PM
Sat, Jun 25
82 °FOvercast.10 mph84%29.83 "Hg15 mi
10:51 PM84 °FOvercast.9 mph84%29.83 "Hg15 mi
9:52 PM84 °FOvercast.13 mph84%29.83 "Hg15 mi
8:54 PM83 °FOvercast.8 mph83%29.81 "Hg15 mi
Weather by CustomWeather, © 2016

See weather overviewHow to use our weather pages